Tracking 30743 objects as of 21-Jun-2025
HD Live streaming from Space Station
objects crossing your sky now

STARLINK-1144

Track STARLINK-1144 now!
10-day predictions
STARLINK-1144 is classified as:


NORAD ID: 44933
Int'l Code: 2020-001V
Perigee: 456.6 km
Apogee: 469.5 km
Inclination: 53.1 °
Period: 93.7 minutes
Semi major axis: 6834 km
RCS: Unknown
Launch date: January 7, 2020
Source: United States (US)
Launch site: AIR FORCE EASTERN TEST RANGE (AFETR)
Your satellite tracking list
Your tracking list is empty




NASA's NSSDC Master Catalog

Two Line Element Set (TLE):
1 44933U 20001V   25171.70369126  .00034294  00000-0  94800-3 0  9992
2 44933  53.0520  55.0875 0009451  24.7473 335.3980 15.36699978302049
Source of the keplerian elements: AFSPC